| time (UTC) | temp F | wind direction | speed MPH | gust MPH | rain 1hr in | rain 24hr in | rain mn in | humidity % | barometer mb |
| 20260509001537 | 72 | 174 | 2.0 | 4.0 | 0.00 | 0.60 | 0.60 | 94 | 1010.5 |
| 20260509000034 | 72 | 0 | 1.0 | 7.0 | 0.00 | 0.60 | 0.60 | 94 | 1010.4 |
| 20260508234535 | 72 | 113 | 1.0 | 5.0 | 0.00 | 0.60 | 0.60 | 93 | 1010.5 |
| 20260508233038 | 72 | 19 | 2.0 | 6.0 | 0.00 | 0.60 | 0.60 | 93 | 1010.1 |
| 20260508231536 | 72 | 58 | 3.0 | 5.0 | 0.00 | 0.60 | 0.60 | 93 | 1010.3 |
| 20260508230036 | 72 | 0 | 1.0 | 8.0 | 0.00 | 0.60 | 0.60 | 94 | 1010.4 |
| 20260508224543 | 72 | 10 | 2.0 | 6.0 | 0.00 | 0.60 | 0.60 | 96 | 1010.3 |
| 20260508223040 | 72 | 116 | 1.0 | 12.0 | 0.00 | 0.60 | 0.60 | 96 | 1010.1 |
| 20260508221535 | 71 | 69 | 3.0 | 12.0 | 0.00 | 0.60 | 0.60 | 98 | 1010.0 |
| 20260508220046 | 71 | 107 | 3.0 | 12.0 | 0.00 | 0.60 | 0.60 | 99 | 1010.0 |
| 20260508214542 | 70 | 0 | 1.0 | 9.0 | 0.00 | 0.60 | 0.60 | 99 | 1010.9 |
| 20260508213040 | 69 | 73 | 2.0 | 6.0 | 0.00 | 0.60 | 0.60 | 99 | 1011.2 |
| 20260508211532 | 69 | 165 | 2.0 | 9.0 | 0.00 | 0.60 | 0.60 | 99 | 1011.2 |
| 20260508210035 | 68 | 49 | 4.0 | 12.0 | 0.00 | 0.60 | 0.60 | 99 | 1011.4 |
| 20260508204537 | 68 | 52 | 2.0 | 9.0 | 0.00 | 0.60 | 0.60 | 98 | 1011.4 |
| 20260508203037 | 68 | 144 | 4.0 | 8.0 | 0.00 | 0.60 | 0.60 | 98 | 1011.7 |
| 20260508201532 | 68 | 116 | 2.0 | 10.0 | 0.02 | 0.60 | 0.60 | 98 | 1011.9 |
| 20260508200032 | 68 | 147 | 3.0 | 7.0 | 0.03 | 0.60 | 0.60 | 98 | 1011.8 |
| 20260508194530 | 68 | 44 | 3.0 | 8.0 | 0.06 | 0.60 | 0.60 | 98 | 1011.8 |
| 20260508193030 | 69 | 74 | 2.0 | 9.0 | 0.46 | 0.60 | 0.60 | 99 | 1011.6 |
| 20260508191543 | 67 | 33 | 4.0 | 9.0 | 0.52 | 0.58 | 0.58 | 98 | 1011.6 |
| 20260508190033 | 67 | 28 | 4.0 | 10.0 | 0.52 | 0.57 | 0.57 | 98 | 1011.8 |
| 20260508184539 | 67 | 15 | 4.0 | 9.0 | 0.48 | 0.52 | 0.52 | 97 | 1012.1 |
| 20260508183029 | 67 | 49 | 4.0 | 11.0 | 0.08 | 0.13 | 0.13 | 97 | 1012.2 |
| 20260508181542 | 67 | 5 | 6.0 | 13.0 | 0.00 | 0.05 | 0.05 | 97 | 1012.8 |
| 20260508180036 | 67 | 30 | 5.0 | 20.0 | 0.00 | 0.05 | 0.05 | 96 | 1012.9 |
| 20260508174541 | 68 | 329 | 5.0 | 11.0 | 0.00 | 0.05 | 0.05 | 96 | 1013.5 |
| 20260508173037 | 69 | 17 | 5.0 | 10.0 | 0.00 | 0.05 | 0.05 | 97 | 1012.9 |
| 20260508171542 | 69 | 18 | 4.0 | 8.0 | 0.00 | 0.05 | 0.05 | 97 | 1013.0 |
| 20260508170035 | 69 | 30 | 3.0 | 6.0 | 0.01 | 0.05 | 0.05 | 97 | 1012.8 |
| 20260508164535 | 69 | 44 | 2.0 | 5.0 | 0.01 | 0.05 | 0.05 | 97 | 1012.4 |
| 20260508163036 | 68 | 346 | 2.0 | 5.0 | 0.04 | 0.05 | 0.05 | 96 | 1012.3 |
| 20260508161550 | 68 | 22 | 2.0 | 4.0 | 0.05 | 0.05 | 0.05 | 96 | 1012.2 |
| 20260508160036 | 68 | 0 | 0.0 | 3.0 | 0.04 | 0.04 | 0.04 | 96 | 1012.5 |
| 20260508154535 | 68 | 98 | 1.0 | 4.0 | 0.04 | 0.04 | 0.04 | 95 | 1012.7 |
| 20260508153055 | 68 | 49 | 3.0 | 7.0 | 0.00 | 0.00 | 0.00 | 95 | 1012.8 |
| 20260508151536 | 68 | 53 | 3.0 | 8.0 | 0.00 | 0.00 | 0.00 | 95 | 1013.4 |
| 20260508150038 | 68 | 30 | 2.0 | 6.0 | 0.00 | 0.00 | 0.00 | 95 | 1013.4 |
| 20260508144535 | 68 | 96 | 3.0 | 9.0 | 0.00 | 0.00 | 0.00 | 94 | 1013.4 |
| 20260508143056 | 68 | 76 | 4.0 | 9.0 | 0.00 | 0.00 | 0.00 | 94 | 1013.4 |
| 20260508141532 | 68 | 64 | 2.0 | 10.0 | 0.00 | 0.00 | 0.00 | 94 | 1013.1 |
| 20260508140039 | 68 | 30 | 4.0 | 7.0 | 0.00 | 0.00 | 0.00 | 93 | 1012.9 |
| 20260508134539 | 68 | 89 | 2.0 | 8.0 | 0.00 | 0.00 | 0.00 | 93 | 1012.8 |
| 20260508133035 | 68 | 22 | 2.0 | 9.0 | 0.00 | 0.00 | 0.00 | 93 | 1012.8 |
| 20260508131535 | 67 | 305 | 4.0 | 11.0 | 0.00 | 0.00 | 0.00 | 93 | 1012.4 |
| 20260508130033 | 67 | 83 | 3.0 | 10.0 | 0.00 | 0.00 | 0.00 | 93 | 1012.3 |
| 20260508124536 | 67 | 33 | 5.0 | 10.0 | 0.00 | 0.00 | 0.00 | 93 | 1012.2 |
| 20260508123037 | 67 | 71 | 2.0 | 9.0 | 0.00 | 0.00 | 0.00 | 93 | 1012.5 |
| 20260508121535 | 66 | 88 | 4.0 | 10.0 | 0.00 | 0.00 | 0.00 | 93 | 1012.5 |
| 20260508120034 | 66 | 22 | 3.0 | 8.0 | 0.00 | 0.00 | 0.00 | 93 | 1013.0 |
| 20260508114530 | 66 | 30 | 3.0 | 8.0 | 0.00 | 0.00 | 0.00 | 93 | 1013.2 |
| 20260508113038 | 66 | 37 | 4.0 | 9.0 | 0.00 | 0.00 | 0.00 | 92 | 1013.6 |
| 20260508111540 | 66 | 5 | 3.0 | 8.0 | 0.00 | 0.00 | 0.00 | 92 | 1013.7 |
| 20260508110035 | 66 | 16 | 3.0 | 9.0 | 0.00 | 0.00 | 0.00 | 92 | 1013.6 |
| 20260508104533 | 66 | 352 | 4.0 | 8.0 | 0.00 | 0.00 | 0.00 | 92 | 1013.7 |
| 20260508103041 | 66 | 30 | 3.0 | 8.0 | 0.00 | 0.00 | 0.00 | 92 | 1013.5 |
| 20260508101535 | 67 | 18 | 2.0 | 7.0 | 0.00 | 0.00 | 0.00 | 92 | 1013.1 |
| 20260508100053 | 66 | 348 | 3.0 | 8.0 | 0.00 | 0.00 | 0.00 | 92 | 1013.2 |
| 20260508094531 | 66 | 26 | 5.0 | 11.0 | 0.00 | 0.01 | 0.00 | 92 | 1012.7 |
| 20260508093037 | 66 | 19 | 4.0 | 11.0 | 0.00 | 0.01 | 0.00 | 92 | 1012.3 |
| 20260508091539 | 66 | 43 | 3.0 | 5.0 | 0.00 | 0.01 | 0.00 | 92 | 1011.8 |
| 20260508090040 | 66 | 31 | 2.0 | 6.0 | 0.00 | 0.01 | 0.00 | 92 | 1012.5 |
| 20260508084532 | 66 | 72 | 1.0 | 7.0 | 0.00 | 0.03 | 0.00 | 92 | 1012.6 |
| 20260508083034 | 66 | 67 | 2.0 | 7.0 | 0.00 | 0.03 | 0.00 | 92 | 1012.9 |
| 20260508081540 | 66 | 25 | 3.0 | 9.0 | 0.00 | 0.03 | 0.00 | 92 | 1012.9 |
| 20260508080034 | 66 | 22 | 2.0 | 8.0 | 0.00 | 0.03 | 0.00 | 92 | 1012.9 |
| 20260508074535 | 66 | 52 | 3.0 | 8.0 | 0.00 | 0.05 | 0.00 | 92 | 1012.9 |
| 20260508073036 | 66 | 81 | 3.0 | 10.0 | 0.00 | 0.05 | 0.00 | 92 | 1012.3 |
| 20260508071538 | 66 | 9 | 4.0 | 9.0 | 0.00 | 0.05 | 0.00 | 92 | 1012.8 |
| 20260508070034 | 66 | 347 | 2.0 | 7.0 | 0.00 | 0.05 | 0.00 | 92 | 1013.5 |
| 20260508064536 | 66 | 5 | 1.0 | 5.0 | 0.00 | 0.05 | 0.00 | 92 | 1013.8 |
| 20260508063031 | 66 | 51 | 3.0 | 7.0 | 0.00 | 0.05 | 0.00 | 92 | 1013.5 |
| 20260508061535 | 65 | 13 | 3.0 | 8.0 | 0.00 | 0.05 | 0.00 | 92 | 1013.8 |
| 20260508060053 | 65 | 348 | 3.0 | 9.0 | 0.00 | 0.05 | 0.00 | 92 | 1013.6 |
| 20260508054609 | 65 | 24 | 3.0 | 9.0 | 0.00 | 0.05 | 0.00 | 92 | 1014.2 |
| 20260508053045 | 65 | 5 | 4.0 | 9.0 | 0.00 | 0.05 | 0.00 | 92 | 1014.2 |
| 20260508051530 | 65 | 28 | 3.0 | 6.0 | 0.00 | 0.05 | 0.00 | 92 | 1014.6 |
| 20260508050035 | 65 | 62 | 2.0 | 5.0 | 0.00 | 0.05 | 0.00 | 92 | 1014.2 |
| 20260508044534 | 65 | 52 | 3.0 | 5.0 | 0.00 | 0.05 | 0.05 | 92 | 1014.2 |
| 20260508043038 | 65 | 29 | 1.0 | 8.0 | 0.00 | 0.05 | 0.05 | 92 | 1014.6 |
| 20260508041533 | 65 | 52 | 2.0 | 9.0 | 0.00 | 0.05 | 0.05 | 92 | 1014.5 |
| 20260508040035 | 65 | 101 | 2.0 | 6.0 | 0.00 | 0.05 | 0.05 | 91 | 1014.6 |
| 20260508034538 | 65 | 23 | 3.0 | 6.0 | 0.00 | 0.05 | 0.05 | 91 | 1014.5 |
| 20260508033039 | 65 | 352 | 3.0 | 5.0 | 0.00 | 0.05 | 0.05 | 91 | 1014.6 |
| 20260508031536 | 66 | 29 | 3.0 | 8.0 | 0.00 | 0.05 | 0.05 | 90 | 1014.4 |
| 20260508030030 | 66 | 28 | 4.0 | 8.0 | 0.00 | 0.05 | 0.05 | 90 | 1014.6 |
| 20260508024541 | 66 | 48 | 3.0 | 7.0 | 0.00 | 0.05 | 0.05 | 90 | 1014.6 |
| 20260508023032 | 67 | 28 | 3.0 | 8.0 | 0.00 | 0.05 | 0.05 | 89 | 1014.2 |
| 20260508021534 | 67 | 9 | 4.0 | 11.0 | 0.00 | 0.05 | 0.05 | 89 | 1014.2 |
| 20260508020035 | 68 | 20 | 4.0 | 11.0 | 0.00 | 0.05 | 0.05 | 88 | 1014.1 |
| 20260508014538 | 68 | 344 | 6.0 | 10.0 | 0.00 | 0.05 | 0.05 | 88 | 1014.0 |
| 20260508013034 | 69 | 67 | 4.0 | 9.0 | 0.00 | 0.05 | 0.05 | 87 | 1013.6 |
| 20260508011534 | 69 | 352 | 3.0 | 8.0 | 0.00 | 0.05 | 0.05 | 86 | 1013.4 |
| 20260508010044 | 70 | 336 | 4.0 | 9.0 | 0.00 | 0.05 | 0.05 | 85 | 1013.4 |
| 20260508004535 | 71 | 5 | 3.0 | 11.0 | 0.00 | 0.05 | 0.05 | 84 | 1013.5 |
| 20260508003034 | 71 | 24 | 4.0 | 9.0 | 0.00 | 0.05 | 0.05 | 84 | 1013.5 |